Location: DARK SKY Beskydy - Park tmavé oblohy, www.darkskybeskydy.cz
(49.4926°N, 18.5016°E)
Time: 04:12:24
(UTC+01:00)

N. Korean satellite - Pass Details

Date: 13 December 2022
Orbit: 407 x 441 km, 97.3° (Epoch: 05 February)

Event Time Altitude Azimuth Distance (km) Brightness Sun altitude
Rises 04:45:30 0° 19° (NNE) 2,489 10.3 -26.1°
Reaches altitude 10° 04:47:40 10° 28° (NNE) 1,600 9.4 -25.7°
Maximum altitude 04:50:54 38° 98° (E) 701 7.8 -25.2°
Drops below altitude 10° 04:54:03 10° 168° (SSE) 1,556 9.3 -24.7°
Sets 04:56:07 0° 177° (S) 2,408 10.2 -24.4°
